Regional Weather Roundup
Issued by NWS

Home | Current Version | Previous Version | Text Only | Print | Product List | Glossary On
Versions: 1 2 3 4 5 6 7 8 9 10 11 12 13 14 15 16 17 18 19 20 21 22 23 24 25 26 27 28 29 30 31 32 33 34 35 36 37 38 39 40 41 42 43 44 45 46 47 48 49 50
846
ASUS45 KABQ 061510
RWRNM
NEW MEXICO REGIONAL WEATHER ROUNDUP
NATIONAL WEATHER SERVICE ALBUQUERQUE NM
900 AM MDT FRI MAY 06 2016

NOTE: "FAIR" MEANS FEW OR NO CLOUDS BELOW 12,000 FEET AGL WITH NO
       SIGNIFICANT WEATHER OR OBSTRUCTIONS TO VISION.

      THIS PRODUCT IS RELEASED AS TWO VERSIONS.  ONE VERSION NEAR
      THE TOP OF THE HOUR CONTAINING PRELIMINARY DATA FROM ALBUQUERQUE
      AND OTHER STATIONS.  A FINAL VERSION WITH ADDITIONAL DATA IS
      ISSUED ABOUT 10 MINUTES AFTER THE HOUR.

NMZ501-503-504-510>518-061600-
NORTHWEST PLATEAU/NORTHCENTRAL MOUNTAINS

CITY           SKY/WX    TMP DP  RH WIND       PRES   REMARKS
FARMINGTON     FAIR      65  29  25 VRB3      29.95F
LOS ALAMOS     FAIR      60  26  26 S6        30.14F
SANTA FE       FAIR      67  25  20 SE20      30.08F
TAOS           FAIR      63  36  36 SE13G21   30.12F
ANGEL FIRE     FAIR      51  35  53 N6        30.23F

$$
NMZ402-403-502-505>509-061600-
WESTCENTRAL MOUNTAINS/SOUTHWEST MOUNTAINS

CITY           SKY/WX    TMP DP  RH WIND       PRES   REMARKS
GALLUP         FAIR      57  28  33 CALM      30.02S
GRANTS         FAIR      65  24  21 SE16G25   30.04S
SILVER CITY      N/A     64  30  27 CALM      30.05R

$$
NMZ407-409-411-412-061600-
SOUTHERN DESERTS

CITY           SKY/WX    TMP DP  RH WIND       PRES   REMARKS
LORDSBURG      FAIR      70  32  24 SW10G17   29.97S
DEMING         FAIR      68  27  21 VRB3      29.98S
LAS CRUCES     FAIR      70  28  20 S7        29.99F
HOLLOMAN AFB   FAIR      78  30  17 S23G30    29.94F
ALAMOGORDO     FAIR      79  30  17 S24       29.96F
T OR C         FAIR      70  22  16 S13       29.96F

$$
NMZ519>523-061600-
CENTRAL VALLEYS/CENTRAL HIGHLANDS

CITY           SKY/WX    TMP DP  RH WIND       PRES   REMARKS
ALBUQUERQUE    FAIR      73  28  18 S18       30.00F
DOUBLE EAGLE   SUNNY     66  28  24 SE17      30.04S
MORIARTY ARPT  FAIR      63  25  23 SE12      30.10F
CLINES CORNERS FAIR      62  25  24 SE14G22   30.12F
BELEN          FAIR      71  23  16 SE16G22   29.99F
SOCORRO        FAIR      68  27  21 SE14      29.98F

$$
NMZ524>526-539-540-061600-
SOUTHCENTRAL MOUNTAINS

CITY           SKY/WX    TMP DP  RH WIND       PRES   REMARKS
RUIDOSO          N/A     64  27  24 SE15      30.14F

$$
NMZ527>531-061600-
NORTHEAST HIGHLANDS/NORTHEAST PLAINS

CITY           SKY/WX    TMP DP  RH WIND       PRES   REMARKS
LAS VEGAS      FAIR      57  27  31 CALM      30.17F
RATON          FAIR      61  26  26 S15       30.16S
CLAYTON        FAIR      70  32  24 SW17G29   30.10S

$$
NMZ532>537-061600-
EASTCENTRAL PLAINS

CITY           SKY/WX    TMP DP  RH WIND       PRES   REMARKS
TUCUMCARI      PTSUNNY   69  32  25 W12       30.07S
CANNON AFB     SUNNY     72  35  26 S21       30.08F
CLOVIS AIRPORT FAIR      70  39  32 S18G24    30.10F

$$
NMZ028-029-538-061600-
SOUTHEAST PLAINS

CITY           SKY/WX    TMP DP  RH WIND       PRES   REMARKS
ROSWELL        FAIR      69  32  25 S14       30.02S
ARTESIA        FAIR      70  36  28 SE22      30.01S
CARLSBAD       FAIR      71  35  26 SE17G24   29.99F
HOBBS          SUNNY     72  37  28 SE20G28   30.06F


$$




USA.gov is the U.S. government's official web portal to all federal, state and local government web resources and services.